GW3496 Weather Reports


time (UTC)temp
F
wind
direction
speed
knots
gust
knots
rain 1hr
in
rain 24hr
in
rain mn
in
humidity
%
barometer
mb
20260906041542 72 316 0.0 1.7 0.01 0.28 0.00 94 1010.2
20260906040042 72 344 1.7 3.5 0.01 0.28 0.00 94 1010.2
20260906034540 72 5 1.7 3.5 0.01 0.28 0.28 94 1010.4
20260906033046 73 24 0.0 0.0 0.00 0.26 0.26 94 1010.4
20260906031539 73 355 0.0 0.0 0.00 0.26 0.26 93 1010.4
20260906030041 73 87 0.0 0.0 0.00 0.26 0.26 93 1010.6
20260906024541 73 360 0.0 2.6 0.00 0.26 0.26 93 1010.2
20260906023043 73 307 0.9 4.3 0.00 0.26 0.26 93 1010.3
20260906021539 73 281 1.7 4.3 0.00 0.26 0.26 93 1010.3
20260906020042 74 288 0.0 2.6 0.00 0.26 0.26 92 1010.1
20260906014539 74 355 0.0 3.5 0.00 0.26 0.26 92 1010.2
20260906013042 74 313 1.7 3.5 0.01 0.26 0.26 92 1009.9
20260906011544 74 290 0.0 0.0 0.01 0.26 0.26 91 1009.5
20260906010048 75 282 0.9 6.1 0.01 0.26 0.26 91 1009.3
20260906004538 75 292 0.0 3.5 0.00 0.26 0.26 91 1009.4
20260906003038 75 292 0.0 0.0 0.00 0.26 0.26 90 1009.4
20260906001538 76 5 0.0 0.0 0.00 0.26 0.26 89 1009.1
20260906000045 76 275 0.0 1.7 0.00 0.26 0.26 89 1009.0
20260905234544 76 348 0.0 3.5 0.01 0.26 0.26 88 1009.1
20260905233043 77 328 0.9 3.5 0.01 0.26 0.26 87 1009.3
20260905231540 77 313 0.0 2.6 0.01 0.26 0.26 86 1009.2
20260905230048 78 281 1.7 4.3 0.01 0.26 0.26 84 1008.8
20260905224558 79 291 0.9 3.5 0.00 0.25 0.25 82 1009.2
20260905223041 79 257 2.6 6.1 0.01 0.25 0.25 80 1009.1
20260905221555 79 242 1.7 3.5 0.01 0.25 0.25 80 1009.2
20260905220043 79 245 2.6 4.3 0.01 0.25 0.25 80 1009.0
20260905214541 79 181 2.6 5.2 0.01 0.25 0.25 80 1008.4
20260905213039 79 217 1.7 4.3 0.01 0.24 0.24 80 1008.8
20260905211539 78 202 2.6 3.5 0.01 0.24 0.24 80 1008.9
20260905210043 78 232 0.0 1.7 0.01 0.24 0.24 82 1008.6
20260905204538 77 186 0.9 5.2 0.02 0.24 0.24 83 1008.9
20260905203056 77 219 2.6 5.2 0.01 0.22 0.22 84 1008.9
20260905201545 76 252 5.2 8.7 0.02 0.22 0.22 86 1008.7
20260905200053 76 218 6.1 8.7 0.02 0.22 0.22 85 1008.8
20260905194538 76 242 5.2 9.6 0.02 0.22 0.22 86 1008.9
20260905193042 76 245 5.2 8.7 0.02 0.22 0.22 87 1009.2
20260905191540 76 245 4.3 7.0 0.02 0.21 0.21 89 1009.3
20260905190042 75 213 3.5 7.0 0.03 0.21 0.21 91 1009.2
20260905184559 74 185 0.9 7.0 0.03 0.19 0.19 93 1009.5
20260905183043 74 250 5.2 8.7 0.04 0.19 0.19 93 1009.7
20260905181601 75 189 3.5 7.8 0.04 0.19 0.19 94 1009.5
20260905180038 73 55 0.0 0.0 0.06 0.18 0.18 93 1009.0
20260905174551 73 23 0.0 4.3 0.07 0.16 0.16 92 1008.9
20260905173042 73 144 0.9 2.6 0.12 0.14 0.14 92 1008.9
20260905171543 73 105 1.7 3.5 0.14 0.14 0.14 92 1009.3
20260905170042 73 144 1.7 4.3 0.11 0.11 0.11 90 1009.6
20260905164545 73 53 0.0 7.0 0.08 0.08 0.08 89 1010.1
20260905163044 76 248 13.0 23.5 0.03 0.03 0.03 83 1011.5
20260905161540 78 304 0.9 7.0 0.00 0.00 0.00 80 1011.0
20260905160107 78 360 4.3 8.7 0.00 0.00 0.00 78 1010.8
20260905154548 79 360 4.3 8.7 0.00 0.00 0.00 77 1010.7
20260905153042 79 33 4.3 10.4 0.00 0.00 0.00 77 1010.4
20260905151540 80 26 2.6 7.0 0.00 0.00 0.00 77 1010.5
20260905150040 80 344 1.7 8.7 0.00 0.00 0.00 77 1010.8
20260905144544 79 15 4.3 8.7 0.00 0.00 0.00 77 1010.8
20260905143044 79 13 4.3 8.7 0.00 0.00 0.00 77 1011.0
20260905141544 79 31 2.6 7.8 0.00 0.00 0.00 77 1010.5
20260905140049 79 344 1.7 7.8 0.00 0.00 0.00 78 1010.4
20260905134543 79 17 3.5 7.8 0.00 0.00 0.00 78 1010.1
20260905133043 78 38 2.6 9.6 0.00 0.00 0.00 80 1009.8
20260905131541 77 50 3.5 8.7 0.00 0.00 0.00 82 1010.3
20260905130039 75 336 3.5 7.0 0.00 0.00 0.00 87 1009.9
20260905124543 74 337 0.9 4.3 0.00 0.00 0.00 88 1010.2
20260905123043 73 52 0.0 2.6 0.00 0.00 0.00 89 1009.8
20260905121539 73 47 2.6 4.3 0.00 0.00 0.00 89 1009.6
20260905120042 73 5 0.0 2.6 0.00 0.00 0.00 90 1009.8
20260905114546 72 82 0.9 3.5 0.00 0.00 0.00 91 1009.5
20260905113047 72 67 0.0 0.0 0.00 0.00 0.00 92 1009.5
20260905111607 72 84 0.0 0.0 0.00 0.00 0.00 92 1009.5
20260905110056 72 84 0.0 0.0 0.00 0.00 0.00 92 1008.8
20260905104550 71 350 0.0 0.0 0.00 0.00 0.00 91 1008.7
20260905103049 72 350 0.0 0.0 0.00 0.00 0.00 91 1008.7
20260905101543 72 350 0.0 0.0 0.00 0.00 0.00 91 1008.5
20260905100045 72 355 0.0 0.0 0.00 0.00 0.00 91 1008.6
20260905094539 72 338 0.9 3.5 0.00 0.00 0.00 91 1008.3
20260905093045 72 302 0.0 0.0 0.00 0.00 0.00 91 1008.1
20260905091611 72 324 0.9 3.5 0.00 0.00 0.00 91 1008.1
20260905090116 72 331 1.7 4.3 0.00 0.00 0.00 91 1008.2
20260905084556 72 316 2.6 5.2 0.00 0.00 0.00 91 1008.3
20260905083045 72 295 1.7 4.3 0.00 0.00 0.00 91 1008.5
20260905081542 72 302 1.7 3.5 0.00 0.00 0.00 91 1008.7
20260905080055 72 250 1.7 5.2 0.00 0.00 0.00 91 1008.8
20260905074549 72 336 0.9 4.3 0.00 0.02 0.00 91 1008.9
20260905073051 72 323 1.7 4.3 0.00 0.02 0.00 91 1009.0
20260905071550 72 5 1.7 5.2 0.00 0.02 0.00 90 1009.0
20260905070057 72 304 3.5 8.7 0.00 0.02 0.00 90 1009.3
20260905064550 72 285 1.7 7.0 0.00 0.12 0.00 90 1009.4
20260905063045 73 281 4.3 9.6 0.00 0.12 0.00 90 1009.7
20260905061557 73 302 1.7 8.7 0.00 0.12 0.00 90 1009.7
20260905060116 73 298 5.2 9.6 0.00 0.12 0.00 90 1010.1
20260905054549 73 290 4.3 8.7 0.00 0.47 0.00 89 1010.3
20260905053052 73 259 5.2 7.8 0.00 0.47 0.00 89 1010.3
20260905051558 74 260 4.3 7.8 0.00 0.47 0.00 89 1010.5
20260905050055 74 194 0.0 4.3 0.00 0.47 0.00 89 1010.8
20260905044602 74 127 0.9 4.3 0.00 0.47 0.00 89 1010.8
20260905043529 74 239 3.5 7.0 0.00 0.47 0.00 89 1010.7